Hourly Data Report for September 08, 2017

All times are specified in Local Standard Time (LST). Add 1 hour to adjust for Daylight Saving Time where and when it is observed.

BAS CARAQUET
NEW BRUNSWICK

47°48'08.000" N
64°50'00.000" W
5.00 m
8100467
71598
WXS

Download Data

Hourly Data (September 2017)
Hourly Data Report for September 8, 2017
Temp Definition
°C
Dew Point Temp Definition
°C
Rel Hum Definition
%
Wind Dir Definition
10's deg

Wind Spd Definition
km/h
Visibility Definition
km
Stn Press Definition
kPa
Hmdx Definition


Wind Chill Definition


Weather Definition


TIME
00:00 16.2 14.4 90 21 10   100.55     LegendNANA
01:00 15.3 14.3 94 21 9   100.60     LegendNANA
02:00 14.6 13.9 96 22 9   100.61     LegendNANA
03:00 13.8 13.4 97 21 9   100.65     LegendNANA
04:00 13.5 12.9 96 22 9   100.68     LegendNANA
05:00 13.6 12.5 93 22 11   100.72     LegendNANA
06:00 13.2 12.2 94 21 11   100.78     LegendNANA
07:00 14.1 12.5 90 22 9   100.85     LegendNANA
08:00 14.7 12.9 89 22 9   100.97     LegendNANA
09:00 17.1 12.8 76 25 12   101.03     LegendNANA
10:00 18.8 13.0 69 27 11   101.08     LegendNANA
11:00 18.5 12.7 69 29 15   101.12     LegendNANA
12:00 17.2 12.6 74 31 14   101.15     LegendNANA
13:00 18.4 13.1 71 29 10   101.20     LegendNANA
14:00 18.6 13.8 74 29 12   101.25     LegendNANA
15:00 18.6 12.3 67 29 18   101.29     LegendNANA
16:00 17.7 11.7 68 27 13   101.36     LegendNANA
17:00 18.8 12.1 65 26 7   101.41     LegendNANA
18:00 16.9 11.9 72 28 6   101.47     LegendNANA
19:00 16.2 11.2 72 24 6   101.57     LegendNANA
20:00 15.1 12.5 84 20 7   101.67     LegendNANA
21:00 14.0 12.8 92 3 2   101.70     LegendNANA
22:00 13.3 12.7 96 5 4   101.73     LegendNANA
23:00 12.9 12.2 96 11 5   101.80     LegendNANA

Notes on Data Quality.

Legend

  • E = Estimated
  • M = Missing
  • NA = Not Available
  • ‡ = Partner data that is not subject to review by the National Climate Archives
Date modified: